Butler, GA

2:30 PM EST on December 08, 2019 (GMT -0500)
Butler

Weather History for K6A1 - October, 2019

Change the Weather History Date:

Sunday, October 20, 2019

  Actual Average (WUND) Record (WUND)
Temperature  
Mean Temperature 64 °F -  
Max Temperature 73 °F - - (-1)
Min Temperature 56 °F - - (-1)
Growing Degree Days 14 (Base 50)    
Moisture  
Dew Point 59 °F    
Average Humidity 87    
Maximum Humidity 99    
Minimum Humidity 63    
Precipitation  
Precipitation 0.00 in - - ()
Sea Level Pressure  
Sea Level Pressure 29.89 in    
Wind  
Wind Speed 6 mph ()    
Max Wind Speed 10 mph    
Max Gust Speed -    
Visibility 9.3 miles    
Events Rain    
Averages and records for this station are not official NWS values.
T = Trace of Precipitation, MM = Missing Value Source: Averaged Metar Reports

Daily Weather History Graph

Daily Weather History Graph

Search for Another Location

Airport or City:

Astronomy

Oct. 20, 2019 Rise Set
Actual Time 7:44 AM EDT 6:58 PM EDT
Civil Twilight 7:19 AM EDT 7:23 PM EDT
Nautical Twilight 6:50 AM EDT 7:52 PM EDT
Astronomical Twilight 6:22 AM EDT 8:20 PM EDT
Moon No Moon Rise 1:58 PM EDT (10/20)
Length of Visible Light 12h 03m
Length of Day
11h 14m
Waning Gibbous, 59% of the Moon is Illuminated
Oct 20
Waning Gibbous
Oct 21
Last Quarter
Oct 27
New
Nov 4
First Quarter
Nov 12
Full

Hourly Weather History & Observations

Time (EDT) Temp. Dew Point Humidity Pressure Visibility Wind Dir Wind Speed Gust Speed Precip Events Conditions
12:15 AM 59.0 °F 58.5 °F 98% 29.70 in 10.0 mi North 10.4 mph - N/A   Unknown
12:35 AM 59.0 °F 58.3 °F 97% 29.70 in 10.0 mi North 10.4 mph - N/A   Unknown
12:55 AM 58.6 °F 57.9 °F 97% 29.71 in 10.0 mi NNW 6.9 mph - N/A   Unknown
1:15 AM 58.1 °F 57.2 °F 97% 29.72 in 10.0 mi NW 6.9 mph - N/A   Unknown
1:35 AM 57.2 °F 56.3 °F 97% 29.73 in 10.0 mi NNW 8.1 mph - N/A   Unknown
1:55 AM 56.3 °F 55.4 °F 97% 29.74 in 10.0 mi NW 8.1 mph - N/A   Unknown
2:15 AM 56.3 °F 55.0 °F 96% 29.75 in 10.0 mi NW 8.1 mph - N/A   Unknown
2:35 AM 56.3 °F 55.4 °F 97% 29.76 in 10.0 mi NW 5.8 mph - N/A   Unknown
2:55 AM 56.3 °F 55.4 °F 97% 29.77 in 7.0 mi NW 5.8 mph - N/A   Unknown
3:15 AM 56.3 °F 55.6 °F 97% 29.77 in 5.0 mi WNW 6.9 mph - N/A   Mist
3:35 AM 56.3 °F 55.8 °F 98% 29.77 in 4.0 mi NW 6.9 mph - N/A   Mist
3:55 AM 56.5 °F 55.9 °F 98% 29.78 in 2.5 mi NW 5.8 mph - N/A   Drizzle
4:15 AM 56.5 °F 56.1 °F 99% 29.79 in 3.0 mi WNW 5.8 mph - N/A   Light Drizzle
4:35 AM 56.7 °F 56.3 °F 99% 29.79 in 2.0 mi WNW 4.6 mph - N/A Rain Rain
4:55 AM 56.7 °F 56.3 °F 99% 29.79 in 2.5 mi West 5.8 mph - N/A   Light Drizzle
5:15 AM 57.0 °F 56.5 °F 98% 29.80 in 10.0 mi WNW 6.9 mph - N/A   Unknown
5:35 AM 57.2 °F 56.5 °F 97% 29.81 in 10.0 mi WNW 6.9 mph - N/A   Unknown
5:55 AM 57.2 °F 56.5 °F 97% 29.82 in 10.0 mi WNW 4.6 mph - N/A   Unknown
6:15 AM 57.2 °F 56.5 °F 97% 29.84 in 10.0 mi WNW 4.6 mph - N/A   Unknown
6:35 AM 57.2 °F 56.5 °F 97% 29.85 in 7.0 mi WNW 6.9 mph - N/A   Unknown
6:55 AM 57.2 °F 56.5 °F 97% 29.85 in 10.0 mi NW 6.9 mph - N/A   Unknown
7:15 AM 57.2 °F 56.5 °F 97% 29.86 in 10.0 mi NW 5.8 mph - N/A   Unknown
7:35 AM 57.2 °F 56.5 °F 97% 29.87 in 10.0 mi WNW 4.6 mph - N/A   Unknown
7:55 AM 57.2 °F 56.5 °F 97% 29.87 in 10.0 mi WNW 5.8 mph - N/A   Unknown
8:15 AM 57.2 °F 56.5 °F 97% 29.88 in 10.0 mi West 6.9 mph - N/A   Unknown
8:35 AM 57.7 °F 57.2 °F 98% 29.89 in 10.0 mi WNW 5.8 mph - N/A   Unknown
8:55 AM 58.6 °F 57.6 °F 96% 29.90 in 10.0 mi WNW 8.1 mph - N/A   Unknown
9:15 AM 59.7 °F 58.1 °F 94% 29.90 in 10.0 mi West 9.2 mph - N/A   Unknown
9:35 AM 59.9 °F 57.7 °F 93% 29.92 in 10.0 mi NW 5.8 mph - N/A   Unknown
9:55 AM 59.9 °F 58.1 °F 94% 29.93 in 10.0 mi NNW 8.1 mph - N/A   Unknown
10:15 AM 60.3 °F 58.1 °F 93% 29.94 in 10.0 mi NW 5.8 mph - N/A   Unknown
10:35 AM 60.8 °F 58.1 °F 91% 29.94 in 10.0 mi NW 6.9 mph - N/A   Unknown
10:55 AM 61.2 °F 58.3 °F 90% 29.95 in 10.0 mi WNW 5.8 mph - N/A   Unknown
11:15 AM 61.7 °F 58.3 °F 89% 29.95 in 10.0 mi WNW 5.8 mph - N/A   Unknown
11:35 AM 62.6 °F 58.6 °F 87% 29.95 in 10.0 mi WNW 4.6 mph - N/A   Unknown
11:55 AM 63.3 °F 58.6 °F 85% 29.96 in 10.0 mi NW 8.1 mph - N/A   Unknown
12:15 PM 64.0 °F 59.0 °F 84% 29.96 in 10.0 mi NNW 6.9 mph - N/A   Unknown
12:35 PM 65.3 °F 59.2 °F 81% 29.96 in 10.0 mi NW 4.6 mph - N/A   Unknown
12:55 PM 66.2 °F 59.0 °F 78% 29.96 in 10.0 mi North 9.2 mph - N/A   Unknown
1:15 PM 66.4 °F 59.0 °F 77% 29.96 in 10.0 mi NW 5.8 mph - N/A   Unknown
1:35 PM 66.9 °F 59.4 °F 77% 29.95 in 10.0 mi NW 4.6 mph - N/A   Unknown
1:55 PM 68.9 °F 59.7 °F 72% 29.95 in 10.0 mi WNW 6.9 mph - N/A   Unknown
2:15 PM 68.5 °F 59.5 °F 73% 29.94 in 10.0 mi North 8.1 mph - N/A   Unknown
2:35 PM 68.7 °F 59.4 °F 72% 29.94 in 10.0 mi NNW 4.6 mph - N/A   Unknown
2:55 PM 70.3 °F 59.7 °F 69% 29.94 in 10.0 mi North 6.9 mph - N/A   Unknown
3:15 PM 70.9 °F 59.9 °F 68% 29.93 in 10.0 mi NNW 4.6 mph - N/A   Unknown
3:35 PM 71.6 °F 59.9 °F 66% 29.93 in 10.0 mi NNW 4.6 mph - N/A   Unknown
3:55 PM 71.8 °F 60.1 °F 67% 29.93 in 10.0 mi NNW 4.6 mph - N/A   Unknown
4:15 PM 73.4 °F 60.3 °F 63% 29.93 in 10.0 mi NNW 4.6 mph - N/A   Unknown
4:35 PM 73.0 °F 60.3 °F 64% 29.93 in 10.0 mi NNW 3.5 mph - N/A   Unknown
4:55 PM 73.0 °F 59.9 °F 63% 29.94 in 10.0 mi NNW 3.5 mph - N/A   Unknown
5:15 PM 73.9 °F 60.4 °F 63% 29.94 in 10.0 mi NNW 4.6 mph - N/A   Unknown
5:35 PM 73.8 °F 60.6 °F 63% 29.94 in 10.0 mi West 4.6 mph - N/A   Unknown
5:55 PM 73.4 °F 60.4 °F 64% 29.94 in 10.0 mi Calm Calm - N/A   Unknown
6:15 PM 72.9 °F 60.8 °F 66% 29.94 in 10.0 mi NW 4.6 mph - N/A   Unknown
6:35 PM 71.4 °F 61.2 °F 70% 29.94 in 10.0 mi NNW 3.5 mph - N/A   Unknown
6:55 PM 69.8 °F 61.3 °F 74% 29.95 in 10.0 mi Calm Calm - N/A   Unknown
7:15 PM 68.9 °F 61.3 °F 77% 29.95 in 10.0 mi NNW 3.5 mph - N/A   Unknown
7:35 PM 67.6 °F 61.5 °F 81% 29.95 in 10.0 mi NNW 4.6 mph - N/A   Unknown
7:55 PM 67.1 °F 61.3 °F 82% 29.96 in 10.0 mi NNW 3.5 mph - N/A   Unknown
8:15 PM 66.7 °F 61.3 °F 83% 29.96 in 10.0 mi NNW 3.5 mph - N/A   Unknown
8:35 PM 67.5 °F 60.8 °F 79% 29.97 in 10.0 mi Calm Calm - N/A   Unknown
8:55 PM 64.8 °F 61.0 °F 88% 29.97 in 10.0 mi Calm Calm - N/A   Unknown
9:15 PM 63.5 °F 60.3 °F 89% 29.97 in 10.0 mi Calm Calm - N/A   Unknown
9:35 PM 62.4 °F 61.2 °F 96% 29.97 in 10.0 mi Calm Calm - N/A   Unknown
9:55 PM 62.2 °F 60.8 °F 95% 29.97 in 10.0 mi Calm Calm - N/A   Unknown
10:35 PM 62.8 °F 61.3 °F 95% 29.99 in 10.0 mi Calm Calm - N/A   Unknown
10:55 PM 62.1 °F 60.4 °F 94% 30.00 in 10.0 mi SW 3.5 mph - N/A   Unknown
11:15 PM 61.7 °F 60.4 °F 96% 30.00 in 10.0 mi SSW 3.5 mph - N/A   Unknown
11:35 PM 61.9 °F 61.0 °F 97% 30.00 in 10.0 mi SW 3.5 mph - N/A   Unknown
11:55 PM 61.2 °F 59.4 °F 94% 30.00 in 10.0 mi Calm Calm - N/A   Unknown